Location: Cabeza de los Veneras
(40.2000°N, 5.2000°W)
Time: 03:06:40
(UTC+00:00)

Cosmos 1503 Rocket - Pass Details

Date: 18 April 2024
Orbit: 750 x 789 km, 74.0° (Epoch: 25 May)

Event Time Altitude Azimuth Distance (km) Brightness Sun altitude
Rises 20:33:39 0° 343° (NNW) 3,292 8.1 -16.7°
Reaches altitude 10° 20:36:05 10° 346° (NNW) 2,360 7.2 -17.1°
Maximum altitude 20:41:25 66° 69° (ENE) 859 4.1 -17.9°
Enters shadow 20:43:55 31° 142° (SE) 1,339 4.7 -18.3°
